Weather History for KTTF - April, 2012

Change the Weather History Date:

Thursday, April 26, 2012

  Actual Average (KDTW) Record (KDTW)
Temperature  
Mean Temperature 51 °F 53 °F  
Max Temperature 60 °F 63 °F 86 °F (2009)
Min Temperature 42 °F 43 °F 27 °F (1926)
Degree Days  
Heating Degree Days 14 12  
Month to date heating degree days 434  
Since 1 July heating degree days 5849  
Cooling Degree Days 0 0  
Month to date cooling degree days 0  
Year to date cooling degree days 0  
Growing Degree Days 1 (Base 50)    
Moisture  
Dew Point 44 °F    
Average Humidity 74    
Maximum Humidity 100    
Minimum Humidity 38    
Precipitation  
Precipitation 0.00 in 0.09 in 1.10 in (1998)
Month to date precipitation 2.50  
Year to date precipitation 8.76  
Snow  
Snow 0.00 in 0.10 in 0.10 in (1932)
Month to date snowfall 1.7  
Since 1 July snowfall 42.5  
Snow Depth -    
Sea Level Pressure  
Sea Level Pressure 29.75 in    
Wind  
Wind Speed 8 mph (NNW)    
Max Wind Speed 22 mph    
Max Gust Speed 29 mph    
Visibility 9 miles    
Events Rain    
T = Trace of Precipitation, MM = Missing Value Source: NWS Daily Summary

Daily Weather History Graph

Daily Weather History Graph

Search for Another Location

Airport or City:

Trip Planner

Search our weather history database for the weather conditions in past years. The results will help you decide how hot, cold, wet, or windy it might be!

Date:

Astronomy

Apr. 26, 2012 Rise Set
Actual Time 6:36 AM EDT 8:27 PM EDT
Civil Twilight 6:06 AM EDT 8:57 PM EDT
Nautical Twilight 5:29 AM EDT 9:34 PM EDT
Astronomical Twilight 4:50 AM EDT 10:13 PM EDT
Moon 10:12 AM EDT (4/26) 12:34 AM EDT (4/26)
Length of Visible Light 14h 51m
Length of Day
13h 51m
Waxing Crescent, 24% of the Moon is Illuminated
Apr 26
Waxing Crescent
Apr 29
First Quarter
May 5
Full
May 12
Last Quarter
May 20
New

Hourly Weather History & Observations

Time (EDT) Temp. Windchill Dew Point Humidity Pressure Visibility Wind Dir Wind Speed Gust Speed Precip Events Conditions
12:10 AM 51.8 °F - 48.2 °F 88% 29.75 in 10.0 mi SSE 4.6 mph - N/A   Overcast
12:31 AM 51.8 °F - 46.4 °F 82% 29.73 in 10.0 mi SE 8.1 mph - N/A   Mostly Cloudy
12:51 AM 51.8 °F - 46.4 °F 82% 29.72 in 10.0 mi SE 5.8 mph - N/A   Mostly Cloudy
1:11 AM 51.8 °F - 46.4 °F 82% 29.72 in 10.0 mi SE 3.5 mph - N/A   Scattered Clouds
1:31 AM 51.8 °F - 46.4 °F 82% 29.72 in 10.0 mi SSE 6.9 mph - N/A   Mostly Cloudy
1:53 AM 51.8 °F - 46.4 °F 82% 29.71 in 10.0 mi SE 4.6 mph - N/A   Overcast
2:13 AM 53.6 °F - 46.4 °F 77% 29.70 in 10.0 mi SE 4.6 mph - N/A   Overcast
2:33 AM 51.8 °F - 46.4 °F 82% 29.69 in 10.0 mi ESE 3.5 mph - N/A   Overcast
2:54 AM 51.8 °F - 46.4 °F 82% 29.68 in 10.0 mi SE 3.5 mph - N/A   Overcast
3:34 AM 51.8 °F - 46.4 °F 82% 29.64 in 10.0 mi ESE 6.9 mph - N/A   Mostly Cloudy
3:54 AM 51.8 °F - 46.4 °F 82% 29.64 in 10.0 mi East 5.8 mph - N/A   Overcast
4:14 AM 51.8 °F - 48.2 °F 88% 29.65 in 10.0 mi ESE 4.6 mph - N/A   Overcast
4:34 AM 51.8 °F - 50.0 °F 94% 29.65 in 10.0 mi East 6.9 mph - N/A   Overcast
4:54 AM 51.8 °F - 50.0 °F 94% 29.66 in 10.0 mi Calm Calm - N/A Rain Light Rain
5:14 AM 51.8 °F - 50.0 °F 94% 29.65 in 10.0 mi East 5.8 mph - N/A   Overcast
5:35 AM 51.8 °F - 50.0 °F 94% 29.65 in 3.0 mi ENE 4.6 mph - N/A Rain Rain
5:55 AM 50.0 °F - 50.0 °F 100% 29.64 in 10.0 mi ENE 4.6 mph - N/A   Overcast
6:15 AM 50.0 °F - 50.0 °F 100% 29.63 in 7.0 mi East 4.6 mph - N/A Rain Light Rain
6:35 AM 50.0 °F - 50.0 °F 100% 29.63 in 7.0 mi ESE 3.5 mph - N/A   Overcast
6:55 AM 51.8 °F - 51.8 °F 100% 29.63 in 7.0 mi Calm Calm - N/A Rain Light Rain
7:15 AM 51.8 °F - 51.8 °F 100% 29.63 in 5.0 mi Calm Calm - N/A Rain Light Rain
7:30 AM 51.8 °F - 51.8 °F 100% 29.63 in 5.0 mi Calm Calm - N/A   Drizzle
7:50 AM 51.8 °F - 51.8 °F 100% 29.63 in 7.0 mi Calm Calm - N/A Rain Rain
8:10 AM 51.8 °F - 51.8 °F 100% 29.63 in 7.0 mi SSE 3.5 mph - N/A   Light Drizzle
8:31 AM 51.8 °F - 51.8 °F 100% 29.64 in 7.0 mi Calm Calm - N/A   Overcast
8:51 AM 53.6 °F - 53.6 °F 100% 29.64 in 10.0 mi Calm Calm - N/A   Overcast
9:11 AM 53.6 °F - 53.6 °F 100% 29.64 in 10.0 mi Calm Calm - N/A   Overcast
9:31 AM 53.6 °F - 53.6 °F 100% 29.63 in 10.0 mi WSW 3.5 mph - N/A   Overcast
9:51 AM 53.6 °F - 53.6 °F 100% 29.64 in 10.0 mi WNW 4.6 mph - N/A   Overcast
10:11 AM 53.6 °F - 53.6 °F 100% 29.64 in 7.0 mi WNW 6.9 mph - N/A   Overcast
10:31 AM 53.6 °F - 53.6 °F 100% 29.65 in 10.0 mi WNW 5.8 mph - N/A   Overcast
10:51 AM 53.6 °F - 53.6 °F 100% 29.65 in 7.0 mi West 6.9 mph - N/A   Overcast
11:12 AM 55.4 °F - 55.4 °F 100% 29.65 in 7.0 mi West 9.2 mph - N/A   Overcast
11:32 AM 57.2 °F - 53.6 °F 88% 29.66 in 7.0 mi WNW 10.4 mph - N/A   Overcast
11:52 AM 57.2 °F - 53.6 °F 88% 29.66 in 7.0 mi NW 9.2 mph - N/A   Overcast
12:12 PM 59.0 °F - 53.6 °F 82% 29.66 in 7.0 mi NW 15.0 mph - N/A   Overcast
12:32 PM 59.0 °F - 51.8 °F 77% 29.67 in 10.0 mi NW 15.0 mph 20.7 mph N/A   Overcast
12:52 PM 60.8 °F - 51.8 °F 72% 29.67 in 10.0 mi NW 18.4 mph 24.2 mph N/A   Overcast
1:12 PM 59.0 °F - 50.0 °F 72% 29.69 in 10.0 mi NNW 18.4 mph 25.3 mph N/A   Overcast
1:32 PM 60.8 °F - 48.2 °F 63% 29.70 in 10.0 mi NNW 17.3 mph 21.9 mph N/A   Overcast
1:53 PM 60.8 °F - 48.2 °F 63% 29.70 in 10.0 mi NNW 18.4 mph 21.9 mph N/A   Overcast
2:13 PM 59.0 °F - 48.2 °F 67% 29.72 in 10.0 mi NNW 21.9 mph 26.5 mph N/A   Overcast
2:33 PM 57.2 °F - 48.2 °F 72% 29.73 in 10.0 mi NNW 17.3 mph 27.6 mph N/A   Overcast
2:53 PM 55.4 °F - 46.4 °F 72% 29.75 in 10.0 mi NW 15.0 mph 25.3 mph N/A   Overcast
3:33 PM 55.4 °F - 46.4 °F 72% 29.77 in 10.0 mi NNW 16.1 mph 24.2 mph N/A   Overcast
4:13 PM 55.4 °F - 42.8 °F 63% 29.80 in 10.0 mi NW 16.1 mph 27.6 mph N/A   Overcast
4:33 PM 55.4 °F - 42.8 °F 63% 29.81 in 10.0 mi NNW 19.6 mph 26.5 mph N/A   Overcast
4:54 PM 55.4 °F - 39.2 °F 54% 29.82 in 10.0 mi NW 19.6 mph 28.8 mph N/A   Overcast
5:14 PM 55.4 °F - 39.2 °F 54% 29.83 in 10.0 mi NNW 16.1 mph - N/A   Overcast
5:34 PM 55.4 °F - 39.2 °F 54% 29.84 in 10.0 mi NNW 12.7 mph 20.7 mph N/A   Overcast
5:54 PM 55.4 °F - 35.6 °F 47% 29.85 in 10.0 mi NW 19.6 mph 27.6 mph N/A   Mostly Cloudy
6:14 PM 55.4 °F - 35.6 °F 47% 29.86 in 10.0 mi NW 16.1 mph 21.9 mph N/A   Scattered Clouds
6:34 PM 53.6 °F - 32.0 °F 44% 29.86 in 10.0 mi WNW 13.8 mph 26.5 mph N/A   Scattered Clouds
6:54 PM 55.4 °F - 32.0 °F 41% 29.87 in 10.0 mi NW 13.8 mph 24.2 mph N/A   Scattered Clouds
7:14 PM 55.4 °F - 32.0 °F 41% 29.87 in 10.0 mi NNW 10.4 mph 19.6 mph N/A   Mostly Cloudy
7:35 PM 53.6 °F - 32.0 °F 44% 29.88 in 10.0 mi NNW 11.5 mph 18.4 mph N/A   Overcast
7:55 PM 53.6 °F - 28.4 °F 38% 29.89 in 10.0 mi NNW 17.3 mph 24.2 mph N/A   Mostly Cloudy
8:15 PM 51.8 °F - 30.2 °F 44% 29.90 in 10.0 mi NNW 12.7 mph 23.0 mph N/A   Scattered Clouds
8:35 PM 50.0 °F - 30.2 °F 47% 29.92 in 10.0 mi NNW 16.1 mph 19.6 mph N/A   Clear
8:55 PM 48.2 °F - 30.2 °F 50% 29.93 in 10.0 mi NNW 12.7 mph 18.4 mph N/A   Clear
9:10 PM 48.2 °F - 30.2 °F 50% 29.95 in 10.0 mi NNW 15.0 mph 19.6 mph N/A   Clear
9:30 PM 46.4 °F 40.1 °F 26.6 °F 46% 29.96 in 10.0 mi NNW 15.0 mph - N/A   Clear
9:50 PM 44.6 °F 38.1 °F 26.6 °F 49% 29.97 in 10.0 mi NNW 13.8 mph 18.4 mph N/A   Clear
10:10 PM 44.6 °F 37.4 °F 26.6 °F 49% 29.99 in 10.0 mi NNW 16.1 mph 21.9 mph N/A   Clear
10:31 PM 42.8 °F 37.0 °F 26.6 °F 53% 30.00 in 10.0 mi NNW 10.4 mph 17.3 mph N/A   Clear
10:51 PM 42.8 °F 36.2 °F 24.8 °F 49% 30.01 in 10.0 mi NNW 12.7 mph 21.9 mph N/A   Clear
11:11 PM 42.8 °F 35.8 °F 24.8 °F 49% 30.01 in 10.0 mi NNW 13.8 mph 19.6 mph N/A   Clear
11:31 PM 42.8 °F 36.2 °F 24.8 °F 49% 30.02 in 10.0 mi NNW 12.7 mph - N/A   Clear
11:51 PM 42.8 °F 36.6 °F 24.8 °F 49% 30.04 in 10.0 mi NNW 11.5 mph - N/A   Clear